Temperature
17 16 16 16 16 16 16 15 15 15 15 15 14 14 14 14 14 14 13 13 13 13 12 12 12 12 12 12 12 12 12 12 12 12 11 11 11 11 11 11 11 11 11
16 16 16 16 15 15 15 15 15 14 14 14 14 14 14 14 13 13 13 13 13 12 12 12 12 11 11 11 11 11 12 12 11 11 11 11 11 11 11 11 10 10 10
15 15 15 15 15 14 14 14 14 14 14 14 13 13 13 13 13 13 13 12 12 12 12 12 11 11 11 11 11 11 11 11 11 11 10 10 10 10 10 10 10 10 10
15 15 15 15 14 14 14 14 14 13 13 13 13 13 13 12 12 12 12 12 12 12 12 11 11 11 11 10 10 10 10 10 10 10 10 10 10 10 9 9 9 9 9
14 14 15 15 14 14 14 13 13 13 13 13 13 13 12 12 12 12 12 12 12 12 12 11 11 11 11 10 10 10 9 9 10 10 9 9 9 9 8 8 8 8 8
14 14 14 14 14 14 14 14 13 13 13 13 13 12 13 12 12 12 12 12 12 12 12 12 11 11 11 10 10 10 9 9 9 9 9 8 8 8 7 7 7 7 7
14 14 14 14 14 14 14 13 13 13 13 13 12 12 12 12 12 12 12 12 12 12 12 11 11 11 11 10 10 10 9 9 8 8 8 8 7 7 6 6 6 6 6
14 14 14 14 14 14 14 13 13 13 13 13 12 12 11 12 12 12 12 12 12 12 12 11 11 11 10 10 10 9 9 8 8 7 7 7 6 6 5 5 5 5 5
14 14 14 14 14 13 13 13 13 13 12 12 12 11 11 11 11 11 11 11 11 11 11 11 11 11 10 10 9 9 8 8 7 7 6 6 6 5 5 5 5 5 5
14 14 14 14 14 13 13 13 13 13 12 12 12 11 11 11 10 10 10 11 11 11 11 10 10 10 10 9 9 8 8 7 7 6 6 5 5 5 4 4 4 5 5
13 13 13 13 13 13 13 12 12 12 12 11 11 11 11 10 10 10 10 10 10 10 10 10 10 9 9 9 8 8 7 7 6 6 5 5 5 4 4 4 4 4 4
13 12 12 12 12 12 12 12 12 11 11 11 11 10 10 10 10 9 9 9 9 9 9 9 9 9 8 8 8 7 7 6 6 5 5 5 4 4 4 4 4 4 4
11 11 11 11 11 11 11 11 11 10 10 10 10 10 9 9 9 9 9 8 8 8 8 8 8 8 8 7 7 7 6 6 5 5 4 4 4 4 3 3 3 3 3
10 10 10 10 10 10 10 10 10 10 9 9 9 9 9 9 9 8 8 8 8 7 7 7 7 7 7 7 7 6 6 5 5 4 4 4 3 3 3 3 2 2 2
9 9 9 9 9 9 9 9 9 9 9 8 8 8 8 8 8 8 7 7 7 6 6 6 6 6 6 6 6 5 5 5 4 4 3 3 3 2 2 2 2 2 2
8 8 8 8 8 8 8 8 8 8 8 8 7 7 7 7 7 7 7 6 6 6 5 5 5 5 5 5 5 5 4 4 3 3 3 2 2 2 2 2 1 1 1
7 7 7 7 7 7 7 7 7 7 7 7 7 7 7 6 6 6 6 6 5 5 5 5 5 4 4 4 4 4 3 3 3 2 2 2 1 1 1 1 1 0 0
6 6 6 6 6 6 7 7 7 6 6 6 6 6 5 5 5 5 5 5 5 5 4 4 4 4 3 3 3 3 2 2 2 1 1 1 1 1 0 0 0 -0 -0
5 5 6 6 6 6 6 6 6 6 5 5 5 5 5 4 4 4 4 4 4 4 3 3 3 3 3 2 2 2 1 1 1 1 1 1 0 0 -0 -0 -0 -1 -1
5 5 5 5 5 5 5 5 5 5 4 4 4 4 3 3 3 3 3 3 3 2 2 2 2 2 2 1 1 1 1 1 0 0 0 -0 -0 -0 -0 -1 -1 -1 -1
4 4 4 4 4 4 4 4 3 3 3 3 2 2 2 2 2 2 2 1 1 1 1 1 1 1 1 0 0 -0 -0 -0 -1 -1 -1 -1 -1 -1 -1 -1 -1 -1 -2
3 3 3 3 3 3 3 3 3 2 2 2 1 1 1 1 1 0 0 0 1 0 0 0 -0 -0 -1 -1 -1 -1 -2 -2 -2 -2 -2 -2 -2 -2 -2 -2 -2 -2 -2
2 2 2 2 2 2 2 2 2 1 1 1 1 0 0 0 -0 -0 -0 -0 -0 -1 -1 -1 -1 -2 -2 -2 -3 -3 -3 -3 -3 -4 -3 -2 -3 -3 -3 -3 -3 -3 -3
1 1 1 1 1 1 1 1 1 1 1 0 0 -0 -0 -1 -1 -1 -1 -1 -1 -2 -2 -2 -3 -3 -3 -4 -4 -4 -4 -4 -4 -5 -5 -4 -3 -3 -3 -3 -3 -3 -3
1 1 1 1 1 1 1 1 0 0 0 -0 -0 -1 -1 -1 -2 -2 -2 -2 -3 -3 -3 -4 -4 -4 -4 -5 -5 -5 -5 -5 -5 -5 -5 -5 -4 -4 -4 -3 -4 -4 -4
1 0 0 0 0 0 0 0 0 -0 -0 -1 -1 -2 -2 -2 -3 -3 -3 -3 -4 -4 -4 -4 -5 -5 -5 -5 -5 -6 -6 -6 -6 -6 -6 -6 -6 -6 -5 -4 -4 -5 -5
Wind_Speed
6 7 7 7 8 8 7 7 7 6 6 6 6 6 6 8 9 11 12 13 13 12 11 9 9 8 7 6 5 4 4 3 3 3 3 3 4 4 5 6 6 7 7
9 8 7 7 9 11 11 10 9 7 6 6 6 8 8 9 11 12 14 15 15 15 14 13 12 11 10 9 8 7 6 6 5 5 4 4 4 4 4 5 5 5 6
12 10 7 7 10 13 12 9 8 7 5 5 6 8 9 10 11 13 15 16 16 17 18 16 15 14 13 12 11 10 9 8 7 7 6 5 5 4 4 4 4 4 5
15 12 7 7 12 11 9 6 5 5 6 6 6 6 7 9 11 14 15 16 17 17 19 20 19 17 16 15 14 13 12 11 10 9 8 7 7 6 5 5 4 4 3
16 13 10 10 12 9 7 6 6 5 7 8 8 8 6 6 8 11 12 16 18 19 20 21 22 21 19 18 17 16 15 14 13 12 11 10 9 8 7 6 5 4 3
14 13 10 10 10 6 6 7 8 7 7 7 6 7 7 7 6 7 9 13 16 19 20 21 21 22 22 22 21 19 18 17 16 15 14 12 11 10 9 8 7 6 5
11 11 8 7 7 8 9 9 7 8 8 4 3 5 5 6 8 8 7 8 11 16 17 19 19 19 20 23 24 23 21 20 19 18 16 15 13 12 11 10 9 8 7
8 8 7 6 6 7 8 8 8 5 5 5 4 3 4 4 6 8 6 7 8 9 11 16 18 19 19 19 22 25 24 22 21 20 19 17 15 14 13 12 10 9 7
4 5 6 6 5 7 8 9 8 8 7 5 6 5 4 5 3 3 4 5 6 5 6 10 15 18 19 19 19 22 24 24 23 21 20 18 17 15 14 13 11 10 9
3 4 4 4 4 5 7 7 7 7 7 7 5 7 7 4 4 4 2 2 4 5 6 6 9 14 16 17 19 20 22 24 25 23 21 20 18 16 15 14 13 12 10
4 5 4 3 3 4 5 6 5 6 6 7 5 4 6 5 5 6 6 3 2 3 4 5 6 9 13 15 17 19 21 24 26 26 23 20 18 17 16 16 14 10 7
3 5 6 4 3 3 4 5 5 5 6 6 5 5 5 4 5 6 8 5 4 3 2 2 3 5 8 12 15 17 20 23 26 26 23 20 18 17 15 13 10 7 5
3 5 5 4 4 4 4 3 3 4 4 5 5 4 5 6 4 4 5 5 4 2 1 1 2 4 6 8 11 15 18 22 23 23 21 19 17 15 13 11 9 8 6
3 5 5 5 5 5 4 3 2 2 2 2 2 2 2 2 3 3 3 3 4 3 2 3 1 2 4 6 8 11 14 18 20 22 21 18 16 13 12 11 10 8 8
3 5 5 5 5 6 5 4 3 3 2 3 2 2 1 2 1 1 1 2 3 4 3 1 1 3 5 5 5 6 9 13 16 18 17 15 13 10 9 9 8 8 9
5 5 6 6 6 6 6 5 4 5 5 5 4 5 5 3 3 3 2 1 1 2 3 1 1 2 4 4 4 3 3 6 9 11 11 10 8 7 6 7 8 9 10
5 6 6 6 7 7 7 7 7 7 7 7 7 7 7 6 5 5 4 3 3 1 1 1 2 2 3 3 4 5 5 3 2 3 4 5 6 6 7 8 9 10 11
5 6 6 7 7 8 8 8 8 8 8 8 8 8 7 6 7 6 5 5 3 3 1 0 1 2 3 3 3 3 5 5 4 3 3 3 3 5 7 8 9 10 11
6 6 7 7 7 8 8 8 8 9 9 9 8 8 7 7 8 6 6 5 4 4 3 2 2 2 2 3 3 3 4 4 4 5 4 4 5 5 6 7 8 10 10
6 6 7 7 7 8 8 8 8 9 9 9 9 8 8 7 6 6 6 5 5 5 4 3 2 2 2 2 3 3 3 3 3 4 5 5 5 6 6 8 9 10 11
6 6 6 7 6 6 7 7 7 8 8 9 8 8 8 9 9 7 6 5 5 4 4 3 3 2 2 3 2 2 2 2 2 3 3 3 4 5 8 9 10 12 13
6 6 7 7 7 7 11 11 9 7 7 7 7 7 7 9 11 12 12 10 8 5 4 3 2 2 2 2 2 2 2 2 2 2 2 3 2 4 7 10 11 12 14
6 6 6 6 7 8 12 12 12 7 7 6 6 6 5 6 8 6 9 11 11 11 8 3 2 2 1 1 1 1 1 0 2 2 2 3 2 4 7 9 11 13 13
5 5 5 5 5 7 10 10 11 7 6 6 5 5 4 4 4 5 5 6 6 6 6 4 2 0 1 1 1 1 1 1 3 3 1 3 3 3 4 9 11 11 10
4 4 4 4 4 4 7 8 8 4 4 4 4 4 3 3 5 6 5 4 4 4 6 6 5 4 5 4 1 2 1 1 3 2 1 2 3 3 4 4 7 6 6
4 3 3 3 3 3 3 5 6 3 3 2 3 4 5 4 5 4 3 2 2 2 2 3 5 6 6 6 4 1 3 2 2 3 2 1 2 3 4 3 3 6 8
Wind_Direction
202 210 219 225 229 230 230 232 237 245 254 261 261 253 246 242 240 236 235 234 232 233 232 227 223 222 222 222 217 209 203 198 184 169 156 139 126 117 111 106 100 95 92
210 212 219 224 230 231 232 232 235 239 249 256 260 254 250 245 241 238 237 237 234 232 231 231 229 227 224 224 222 218 215 215 209 199 189 174 158 144 130 119 111 105 99
218 217 220 226 233 235 234 235 239 239 244 246 251 253 248 243 238 236 236 235 234 232 230 232 233 231 227 225 224 222 219 220 219 215 209 201 191 178 161 145 132 121 111
222 220 223 231 235 232 225 223 225 234 242 242 247 248 243 241 239 237 233 231 231 231 229 230 232 232 230 228 227 224 221 220 221 221 219 214 208 201 190 179 167 154 139
224 222 228 233 230 224 222 227 227 222 240 243 245 249 243 239 241 238 231 230 228 228 227 228 229 229 228 228 228 227 223 219 219 221 222 220 218 215 212 205 197 191 184
228 225 231 231 221 219 227 226 232 226 235 243 250 255 249 242 239 236 236 234 231 230 228 227 228 230 228 226 227 229 227 220 216 218 220 221 221 221 221 219 215 212 211
231 226 233 229 216 223 230 226 227 233 239 225 238 267 263 242 239 240 234 232 234 232 230 229 228 228 229 228 227 228 229 225 219 216 217 220 222 223 225 224 223 223 226
242 234 232 233 223 227 233 229 220 226 230 190 197 238 286 290 253 241 234 236 241 234 231 231 229 229 229 228 227 227 229 229 225 220 216 218 220 224 227 228 228 229 232
279 261 252 244 235 228 237 237 226 228 242 220 200 213 241 253 284 278 244 239 239 233 236 235 232 233 232 232 231 230 228 228 229 226 221 218 219 223 226 229 230 233 235
316 303 286 269 256 246 246 246 234 229 236 243 217 223 234 236 251 288 278 269 250 241 240 238 238 237 236 235 234 232 230 227 229 230 225 219 218 221 225 228 232 235 236
351 348 329 307 282 267 262 260 252 239 236 243 230 213 230 237 233 251 272 269 280 256 244 237 237 240 238 236 236 236 235 233 232 232 230 224 220 222 227 229 230 230 233
347 358 353 346 326 305 287 275 264 253 246 245 240 218 209 211 213 226 251 249 251 257 255 250 244 247 244 239 238 238 236 236 236 233 229 227 223 222 226 226 223 222 227
351 348 353 347 339 327 313 296 278 269 256 249 245 236 224 228 216 217 241 257 251 255 278 280 273 273 262 252 247 240 237 236 235 232 228 226 227 223 219 219 226 228 240
342 344 352 355 353 347 341 331 320 309 299 276 270 258 236 240 226 221 226 240 261 257 253 261 328 322 301 280 262 248 241 237 234 235 230 223 223 224 222 221 228 240 253
356 6 8 8 7 6 5 10 22 12 22 25 20 29 34 18 14 325 254 226 239 267 268 255 321 357 344 326 301 269 251 246 240 234 229 226 225 222 220 223 236 249 259
16 19 23 24 23 20 21 34 38 36 53 44 42 54 50 33 37 32 24 5 251 243 258 86 28 6 350 347 343 330 280 259 247 238 231 223 213 209 219 231 244 254 259
32 34 33 37 37 33 32 45 47 45 57 53 49 58 53 44 48 40 39 38 32 17 268 57 48 11 5 6 16 34 38 26 0 274 243 226 219 223 232 248 254 258 260
42 43 46 51 50 47 45 52 57 55 60 58 53 57 51 51 51 43 47 46 38 28 58 50 33 22 24 18 22 33 45 45 34 359 314 282 264 258 258 256 259 260 261
54 52 57 60 57 56 57 59 66 67 66 63 59 60 54 57 56 47 48 45 34 34 41 80 50 34 32 29 34 37 44 35 32 15 357 337 314 292 279 270 267 267 268
63 61 65 69 69 66 64 66 71 72 70 64 60 60 58 61 65 58 51 42 42 46 48 64 61 43 35 23 40 36 33 28 16 9 356 342 330 318 303 287 281 281 279
70 66 67 66 71 74 71 71 70 74 73 69 58 52 54 61 68 72 68 54 53 53 51 53 51 43 30 23 26 18 25 7 9 14 352 341 329 312 300 294 287 281 276
72 68 64 62 62 70 78 81 81 71 69 67 59 47 48 49 53 57 60 58 59 61 55 51 41 42 21 14 16 25 26 18 341 2 352 300 285 279 281 282 279 275 272
80 70 62 60 63 73 80 83 84 79 73 65 58 49 48 47 53 47 51 50 45 51 61 89 72 45 11 351 34 25 20 322 271 297 340 292 298 283 282 284 288 283 276
87 76 65 58 60 72 84 87 89 80 73 62 57 57 53 28 51 68 59 47 35 33 47 61 88 353 273 256 205 185 222 304 292 275 212 277 303 286 290 295 299 291 280
95 85 76 66 59 55 83 93 94 80 68 51 36 37 44 18 32 57 68 48 27 7 23 35 31 17 1 346 328 119 73 15 316 297 250 254 303 304 296 297 312 318 317
118 110 92 69 52 16 59 99 107 99 78 47 23 11 13 12 17 44 96 67 6 330 348 1 6 5 6 3 17 107 169 174 233 285 281 242 294 332 318 295 289 299 301
Height
1565 1566 1566 1567 1568 1569 1569 1570 1570 1571 1571 1571 1571 1571 1571 1571 1571 1571 1571 1571 1571 1571 1570 1569 1569 1568 1567 1567 1566 1565 1565 1564 1564 1564 1564 1564 1564 1564 1564 1564 1564 1564 1564
1563 1564 1565 1566 1566 1567 1568 1568 1568 1568 1568 1568 1568 1568 1568 1568 1568 1568 1568 1568 1568 1568 1568 1567 1567 1566 1565 1565 1564 1564 1563 1563 1562 1562 1563 1563 1563 1563 1563 1563 1563 1563 1563
1561 1562 1562 1563 1564 1565 1565 1565 1565 1565 1565 1565 1565 1565 1565 1565 1565 1565 1565 1565 1565 1565 1565 1565 1564 1564 1563 1563 1562 1562 1561 1561 1561 1561 1561 1561 1561 1561 1561 1561 1562 1562 1562
1559 1559 1560 1560 1562 1562 1562 1562 1562 1561 1561 1561 1561 1562 1562 1561 1561 1561 1560 1560 1560 1561 1561 1561 1561 1561 1561 1560 1560 1559 1559 1558 1559 1559 1559 1559 1559 1559 1559 1560 1560 1560 1561
1556 1556 1556 1557 1558 1558 1558 1558 1558 1558 1557 1557 1557 1557 1557 1556 1556 1556 1556 1556 1556 1556 1556 1556 1556 1557 1557 1557 1557 1556 1556 1555 1555 1556 1556 1556 1557 1557 1557 1557 1558 1558 1559
1552 1552 1552 1553 1553 1553 1553 1554 1553 1553 1553 1552 1551 1551 1550 1550 1550 1550 1550 1550 1550 1550 1550 1551 1551 1552 1552 1552 1552 1552 1552 1552 1552 1552 1553 1553 1554 1554 1555 1555 1555 1556 1556
1548 1548 1548 1548 1548 1548 1548 1549 1548 1548 1547 1547 1546 1544 1543 1543 1543 1543 1544 1544 1544 1544 1544 1544 1545 1546 1546 1547 1547 1547 1548 1548 1548 1548 1548 1549 1550 1551 1552 1552 1553 1553 1554
1543 1543 1543 1543 1543 1543 1543 1543 1543 1542 1541 1542 1541 1539 1537 1536 1535 1536 1537 1537 1537 1538 1538 1538 1539 1539 1540 1540 1541 1541 1542 1543 1543 1544 1544 1545 1546 1547 1548 1549 1550 1551 1551
1538 1537 1537 1537 1537 1537 1536 1537 1537 1536 1536 1536 1536 1536 1533 1529 1529 1530 1530 1531 1532 1532 1532 1532 1532 1533 1533 1533 1534 1535 1535 1536 1537 1538 1539 1540 1541 1542 1544 1545 1547 1548 1548
1532 1531 1531 1531 1530 1530 1530 1530 1531 1530 1530 1529 1529 1529 1529 1527 1526 1523 1524 1526 1526 1526 1526 1526 1526 1526 1526 1526 1526 1527 1528 1529 1530 1531 1533 1533 1535 1537 1539 1540 1542 1544 1544
1526 1525 1525 1524 1524 1523 1523 1523 1523 1523 1523 1523 1523 1523 1522 1522 1521 1520 1517 1519 1520 1520 1520 1520 1520 1520 1519 1519 1519 1520 1521 1521 1523 1524 1526 1527 1528 1530 1532 1534 1536 1537 1538
1519 1519 1518 1518 1517 1517 1517 1516 1516 1516 1516 1516 1516 1516 1516 1516 1516 1515 1513 1512 1512 1514 1514 1514 1514 1513 1513 1512 1512 1512 1512 1513 1515 1516 1518 1520 1522 1524 1526 1528 1529 1531 1532
1514 1513 1512 1512 1511 1511 1510 1510 1510 1510 1510 1510 1510 1510 1510 1510 1511 1510 1509 1507 1506 1506 1507 1508 1508 1508 1507 1506 1506 1505 1505 1505 1507 1509 1510 1512 1515 1517 1519 1521 1524 1525 1526
1508 1508 1507 1507 1506 1506 1505 1505 1504 1504 1504 1504 1504 1504 1504 1505 1505 1504 1504 1503 1501 1501 1501 1502 1502 1502 1501 1501 1500 1499 1499 1499 1500 1502 1504 1506 1509 1511 1513 1515 1517 1518 1520
1504 1503 1503 1502 1502 1501 1501 1500 1499 1499 1499 1499 1499 1499 1499 1499 1499 1499 1499 1499 1498 1496 1496 1496 1496 1496 1495 1495 1494 1493 1493 1493 1494 1496 1499 1501 1503 1505 1507 1509 1510 1512 1513
1500 1500 1499 1498 1498 1497 1497 1496 1495 1495 1495 1495 1494 1494 1494 1494 1494 1494 1494 1494 1493 1493 1492 1491 1491 1491 1490 1489 1488 1488 1488 1488 1489 1491 1494 1495 1498 1500 1502 1503 1504 1506 1507
1497 1496 1495 1495 1494 1494 1493 1492 1492 1491 1491 1491 1490 1490 1490 1490 1490 1489 1489 1489 1489 1488 1487 1487 1486 1486 1485 1484 1484 1483 1483 1484 1485 1487 1489 1491 1493 1494 1496 1497 1498 1499 1500
1493 1493 1492 1492 1491 1490 1490 1489 1489 1488 1488 1487 1487 1487 1487 1486 1486 1486 1485 1485 1485 1484 1484 1483 1482 1482 1481 1480 1480 1480 1480 1481 1482 1483 1485 1487 1488 1489 1490 1491 1492 1493 1493
1490 1490 1489 1489 1488 1488 1487 1486 1486 1485 1485 1485 1484 1484 1484 1483 1483 1483 1482 1482 1481 1481 1480 1480 1479 1478 1478 1477 1477 1477 1477 1478 1479 1480 1481 1482 1483 1484 1484 1485 1486 1486 1487
1488 1487 1487 1486 1486 1485 1485 1484 1483 1483 1483 1482 1482 1482 1482 1481 1481 1480 1480 1479 1479 1478 1478 1477 1476 1476 1475 1475 1475 1475 1475 1475 1476 1476 1477 1477 1478 1478 1479 1479 1479 1480 1480
1485 1485 1485 1484 1484 1484 1483 1483 1482 1482 1481 1481 1481 1481 1480 1480 1479 1479 1479 1478 1478 1477 1476 1475 1475 1474 1473 1473 1473 1472 1472 1472 1472 1472 1472 1472 1472 1472 1473 1473 1473 1473 1473
1484 1483 1483 1483 1483 1483 1482 1482 1482 1481 1481 1480 1480 1480 1479 1479 1478 1478 1477 1476 1476 1475 1474 1473 1473 1472 1471 1471 1470 1470 1469 1469 1469 1469 1468 1468 1468 1467 1467 1466 1467 1467 1467
1483 1483 1483 1483 1482 1482 1482 1482 1481 1481 1480 1480 1479 1479 1478 1478 1477 1476 1475 1474 1474 1472 1472 1472 1471 1470 1469 1468 1468 1467 1466 1466 1465 1464 1464 1463 1463 1462 1462 1461 1461 1461 1461
1482 1483 1483 1482 1482 1482 1482 1482 1481 1481 1480 1479 1478 1477 1477 1476 1475 1474 1473 1472 1471 1470 1469 1469 1468 1468 1467 1466 1465 1465 1464 1463 1462 1462 1460 1459 1458 1458 1457 1456 1455 1455 1455
1482 1482 1482 1482 1482 1482 1482 1481 1481 1480 1479 1478 1477 1476 1475 1474 1473 1472 1471 1470 1469 1468 1467 1466 1466 1465 1464 1463 1462 1462 1461 1460 1459 1459 1458 1456 1455 1453 1453 1452 1451 1451 1450
1482 1482 1482 1482 1482 1481 1481 1480 1480 1479 1478 1476 1475 1474 1473 1472 1471 1470 1469 1468 1467 1466 1465 1464 1464 1463 1462 1461 1460 1460 1459 1458 1457 1456 1454 1454 1452 1451 1449 1448 1447 1447 1447